sat.trackr.live / text

‹ back to catalog

STARLINK-34028

NORAD 63973 · 2025-099X

PAYLOAD ACTIVE UNKNOWN

§ Identity

Operator
Country
US
Launch date
2025-05-13
Launch site
AFETR
Launch vehicle
Mass (kg)
RCS (m²)

Purposes: comms

External: N2YO · Heavens-Above · Gunter

§ Orbital elements

Epoch: 2026-09-19T02:27:39.776544Z

Period
94.27 min
Inclination
43.0013°
Eccentricity
0.0001268
Mean motion
15.27588276 rev/d
Perigee alt
482.2 km
Apogee alt
483.9 km
Semi-major
6,861.2 km
B*
4.2135e-4
RAAN
160.6863°
Arg perigee
263.8638°
Mean anomaly
96.2069°
Rev number
7,695

§ Raw data

STARLINK-340281 63973U 25099X   26262.10254371  .00011353  00000+0  42135-3 0  99942 63973  43.0013 160.6863 0001268 263.8638  96.2069 15.27588276 76954

JSON: /api/v1/satellites/63973 · /tle

For live sub-satellite position, see the globe view (requires WebGL).

§ Visibility from observer

Set your observer location to see the next 7 days of passes ≥ 10°. The values pass through the URL so the page stays shareable.

No JS? Fill the form by hand. The geolocation button needs JavaScript.